| time (UTC) | temp C | wind direction | speed KPH | gust KPH | rain 1hr cm | rain 24hr cm | rain mn cm | humidity % | barometer mb |
| 20260502152217 | 8 | 344 | 12.9 | 16.1 | 0.00 | 0.00 | 0.00 | 52 | 1015.4 |
| 20260502151715 | 8 | 42 | 12.9 | 16.1 | 0.00 | 0.00 | 0.00 | 48 | 1015.5 |
| 20260502151212 | 8 | 344 | 3.2 | 9.7 | 0.00 | 0.00 | 0.00 | 50 | 1015.5 |
| 20260502150709 | 8 | 64 | 11.3 | 14.5 | 0.00 | 0.00 | 0.00 | 51 | 1015.5 |
| 20260502150205 | 8 | 70 | 9.7 | 12.9 | 0.00 | 0.00 | 0.00 | 52 | 1015.3 |
| 20260502140129 | 7 | 70 | 1.6 | 24.1 | 0.00 | 0.00 | 0.00 | 50 | 1015.5 |
| 20260502130554 | 6 | 50 | 3.2 | 6.4 | 0.00 | 0.00 | 0.00 | 63 | 1015.5 |
| 20260502123538 | 5 | 258 | 3.2 | 4.8 | 0.00 | 0.00 | 0.00 | 66 | 1015.7 |
| 20260502123034 | 5 | 61 | 6.4 | 9.7 | 0.00 | 0.00 | 0.00 | 70 | 1015.5 |
| 20260502122531 | 5 | 60 | 0.0 | 1.6 | 0.00 | 0.00 | 0.00 | 73 | 1015.4 |
| 20260502122028 | 5 | 34 | 3.2 | 3.2 | 0.00 | 0.00 | 0.00 | 71 | 1015.5 |
| 20260502121525 | 5 | 39 | 3.2 | 4.8 | 0.00 | 0.00 | 0.00 | 69 | 1015.5 |
| 20260502121023 | 5 | 343 | 6.4 | 9.7 | 0.00 | 0.00 | 0.00 | 69 | 1015.6 |
| 20260502120519 | 5 | 40 | 0.0 | 4.8 | 0.00 | 0.00 | 0.00 | 68 | 1015.6 |
| 20260502115513 | 4 | 297 | 1.6 | 1.6 | 0.00 | 0.00 | 0.00 | 71 | 1015.5 |
| 20260502115009 | 4 | 251 | 1.6 | 4.8 | 0.00 | 0.00 | 0.00 | 73 | 1015.5 |
| 20260502114506 | 4 | 240 | 3.2 | 4.8 | 0.00 | 0.00 | 0.00 | 71 | 1015.5 |
| 20260502114003 | 3 | 284 | 3.2 | 6.4 | 0.00 | 0.00 | 0.00 | 74 | 1015.5 |
| 20260502113500 | 3 | 267 | 3.2 | 4.8 | 0.00 | 0.00 | 0.00 | 77 | 1015.5 |
| 20260502112959 | 3 | 248 | 3.2 | 4.8 | 0.00 | 0.00 | 0.00 | 81 | 1015.4 |
| 20260502112456 | 3 | 243 | 1.6 | 4.8 | 0.00 | 0.00 | 0.00 | 79 | 1015.6 |
| 20260502111954 | 3 | 253 | 1.6 | 4.8 | 0.00 | 0.00 | 0.00 | 81 | 1015.5 |
| 20260502111451 | 2 | 263 | 3.2 | 4.8 | 0.00 | 0.00 | 0.00 | 83 | 1015.3 |
| 20260502110948 | 2 | 252 | 1.6 | 1.6 | 0.00 | 0.00 | 0.00 | 83 | 1015.3 |
| 20260502110446 | 2 | 249 | 3.2 | 3.2 | 0.00 | 0.00 | 0.00 | 81 | 1015.3 |
| 20260502105943 | 2 | 249 | 1.6 | 1.6 | 0.00 | 0.00 | 0.00 | 83 | 1015.6 |
| 20260502105440 | 2 | 256 | 1.6 | 1.6 | 0.00 | 0.00 | 0.00 | 85 | 1015.5 |
| 20260502104938 | 2 | 258 | 1.6 | 1.6 | 0.00 | 0.00 | 0.00 | 84 | 1015.5 |
| 20260502104435 | 2 | 269 | 3.2 | 3.2 | 0.00 | 0.00 | 0.00 | 83 | 1015.6 |
| 20260502103932 | 2 | 269 | 1.6 | 3.2 | 0.00 | 0.00 | 0.00 | 83 | 1015.5 |
| 20260502103430 | 2 | 263 | 1.6 | 1.6 | 0.00 | 0.00 | 0.00 | 84 | 1015.5 |
| 20260502102927 | 2 | 262 | 0.0 | 3.2 | 0.00 | 0.00 | 0.00 | 80 | 1015.4 |
| 20260502102423 | 2 | 249 | 3.2 | 4.8 | 0.00 | 0.00 | 0.00 | 81 | 1015.6 |
| 20260502101920 | 2 | 250 | 1.6 | 1.6 | 0.00 | 0.00 | 0.00 | 83 | 1015.5 |
| 20260502101419 | 2 | 250 | 0.0 | 3.2 | 0.00 | 0.00 | 0.00 | 81 | 1015.6 |
| 20260502100917 | 2 | 251 | 3.2 | 4.8 | 0.00 | 0.00 | 0.00 | 82 | 1015.7 |
| 20260502100416 | 2 | 270 | 1.6 | 1.6 | 0.00 | 0.00 | 0.00 | 86 | 1015.8 |
| 20260502091349 | 3 | 272 | 1.6 | 3.2 | 0.00 | 0.00 | 0.00 | 84 | 1015.6 |
| 20260502090847 | 3 | 279 | 1.6 | 3.2 | 0.00 | 0.00 | 0.00 | 80 | 1015.7 |
| 20260502090344 | 3 | 289 | 1.6 | 3.2 | 0.00 | 0.00 | 0.00 | 84 | 1015.8 |
| 20260502071238 | 3 | 276 | 1.6 | 1.6 | 0.00 | 0.00 | 0.00 | 79 | 1015.5 |
| 20260502070737 | 4 | 265 | 1.6 | 1.6 | 0.00 | 0.00 | 0.00 | 81 | 1015.3 |
| 20260502070234 | 4 | 265 | 1.6 | 1.6 | 0.00 | 0.00 | 0.00 | 82 | 1015.3 |
| 20260502065733 | 4 | 293 | 3.2 | 3.2 | 0.00 | 0.00 | 0.00 | 80 | 1015.3 |
| 20260502065230 | 4 | 341 | 1.6 | 3.2 | 0.00 | 0.00 | 0.00 | 77 | 1015.4 |
| 20260502064729 | 5 | 281 | 1.6 | 3.2 | 0.00 | 0.00 | 0.00 | 72 | 1015.4 |
| 20260502064226 | 5 | 273 | 1.6 | 3.2 | 0.00 | 0.00 | 0.00 | 78 | 1015.3 |
| 20260502063723 | 5 | 248 | 1.6 | 3.2 | 0.00 | 0.00 | 0.00 | 76 | 1015.4 |
| 20260502063221 | 4 | 305 | 0.0 | 1.6 | 0.00 | 0.00 | 0.00 | 80 | 1015.3 |
| 20260502062718 | 4 | 307 | 0.0 | 3.2 | 0.00 | 0.00 | 0.00 | 77 | 1015.4 |
| 20260502062216 | 5 | 259 | 1.6 | 3.2 | 0.00 | 0.00 | 0.00 | 72 | 1015.4 |
| 20260502061714 | 6 | 269 | 1.6 | 3.2 | 0.00 | 0.00 | 0.00 | 71 | 1015.4 |
| 20260502061211 | 6 | 256 | 3.2 | 4.8 | 0.00 | 0.00 | 0.00 | 73 | 1015.4 |
| 20260502060706 | 6 | 287 | 0.0 | 3.2 | 0.00 | 0.00 | 0.00 | 71 | 1015.6 |
| 20260502060203 | 6 | 283 | 3.2 | 4.8 | 0.00 | 0.00 | 0.00 | 70 | 1015.5 |
| 20260502055700 | 6 | 265 | 1.6 | 3.2 | 0.00 | 0.00 | 0.00 | 68 | 1015.6 |
| 20260502055158 | 6 | 308 | 0.0 | 1.6 | 0.00 | 0.00 | 0.00 | 71 | 1015.7 |
| 20260502054657 | 6 | 305 | 1.6 | 3.2 | 0.00 | 0.00 | 0.00 | 68 | 1015.7 |
| 20260502054154 | 7 | 290 | 3.2 | 4.8 | 0.00 | 0.00 | 0.00 | 68 | 1015.5 |
| 20260502053651 | 7 | 355 | 1.6 | 3.2 | 0.00 | 0.00 | 0.00 | 70 | 1015.5 |
| 20260502053148 | 7 | 269 | 0.0 | 3.2 | 0.00 | 0.00 | 0.00 | 68 | 1015.8 |
| 20260502052646 | 7 | 315 | 1.6 | 4.8 | 0.00 | 0.00 | 0.00 | 69 | 1015.7 |
| 20260502052144 | 7 | 319 | 4.8 | 6.4 | 0.00 | 0.00 | 0.00 | 69 | 1015.7 |
| 20260502051642 | 7 | 275 | 3.2 | 4.8 | 0.00 | 0.00 | 0.00 | 68 | 1015.9 |
| 20260502051140 | 7 | 47 | 9.7 | 14.5 | 0.00 | 0.00 | 0.00 | 69 | 1015.8 |
| 20260502050636 | 7 | 332 | 1.6 | 9.7 | 0.00 | 0.00 | 0.00 | 67 | 1015.9 |
| 20260502050133 | 7 | 283 | 3.2 | 4.8 | 0.00 | 0.00 | 0.00 | 70 | 1015.8 |
| 20260502045629 | 7 | 231 | 1.6 | 3.2 | 0.00 | 0.00 | 0.00 | 71 | 1015.6 |
| 20260502045127 | 7 | 255 | 3.2 | 3.2 | 0.00 | 0.00 | 0.00 | 71 | 1015.8 |
| 20260502044623 | 7 | 276 | 3.2 | 4.8 | 0.00 | 0.00 | 0.00 | 71 | 1015.9 |
| 20260502044120 | 7 | 313 | 4.8 | 6.4 | 0.00 | 0.00 | 0.00 | 70 | 1015.8 |
| 20260502043618 | 7 | 298 | 8.0 | 11.3 | 0.00 | 0.00 | 0.00 | 71 | 1015.8 |
| 20260502043115 | 7 | 269 | 3.2 | 4.8 | 0.00 | 0.00 | 0.00 | 72 | 1015.7 |
| 20260502042614 | 7 | 285 | 4.8 | 6.4 | 0.00 | 0.00 | 0.00 | 71 | 1015.7 |
| 20260502042112 | 7 | 320 | 3.2 | 4.8 | 0.00 | 0.00 | 0.00 | 70 | 1015.8 |
| 20260502041610 | 7 | 27 | 4.8 | 9.7 | 0.00 | 0.00 | 0.00 | 73 | 1015.8 |
| 20260502041107 | 7 | 52 | 4.8 | 11.3 | 0.00 | 0.00 | 0.00 | 72 | 1015.5 |
| 20260502040603 | 8 | 9 | 3.2 | 4.8 | 0.00 | 0.00 | 0.00 | 72 | 1015.6 |
| 20260502040101 | 7 | 356 | 1.6 | 3.2 | 0.00 | 0.00 | 0.00 | 74 | 1015.7 |
| 20260502035556 | 7 | 317 | 3.2 | 3.2 | 0.00 | 0.00 | 0.00 | 73 | 1015.6 |
| 20260502035054 | 7 | 14 | 6.4 | 6.4 | 0.00 | 0.00 | 0.00 | 72 | 1015.9 |
| 20260502034551 | 7 | 298 | 3.2 | 4.8 | 0.00 | 0.00 | 0.00 | 72 | 1015.8 |
| 20260502034050 | 7 | 279 | 0.0 | 1.6 | 0.00 | 0.00 | 0.00 | 71 | 1015.6 |
| 20260502033548 | 7 | 276 | 3.2 | 3.2 | 0.00 | 0.00 | 0.00 | 76 | 1015.6 |
| 20260502033045 | 7 | 313 | 1.6 | 3.2 | 0.00 | 0.00 | 0.00 | 73 | 1015.7 |
| 20260502032540 | 7 | 271 | 1.6 | 3.2 | 0.00 | 0.00 | 0.00 | 73 | 1015.7 |
| 20260502032037 | 7 | 277 | 0.0 | 3.2 | 0.00 | 0.00 | 0.00 | 75 | 1015.7 |
| 20260502031535 | 7 | 210 | 3.2 | 3.2 | 0.00 | 0.00 | 0.00 | 72 | 1015.6 |
| 20260502031033 | 7 | 274 | 3.2 | 3.2 | 0.00 | 0.00 | 0.00 | 72 | 1015.7 |
| 20260502030532 | 7 | 272 | 0.0 | 3.2 | 0.00 | 0.00 | 0.00 | 71 | 1015.4 |
| 20260502030029 | 7 | 6 | 1.6 | 4.8 | 0.00 | 0.00 | 0.00 | 69 | 1015.4 |
| 20260502025526 | 8 | 326 | 3.2 | 6.4 | 0.00 | 0.00 | 0.00 | 67 | 1015.2 |
| 20260502025024 | 8 | 4 | 4.8 | 4.8 | 0.00 | 0.00 | 0.00 | 68 | 1015.5 |
| 20260502024521 | 8 | 94 | 4.8 | 11.3 | 0.00 | 0.00 | 0.00 | 64 | 1015.5 |
| 20260502024020 | 7 | 28 | 3.2 | 3.2 | 0.00 | 0.00 | 0.00 | 66 | 1015.3 |
| 20260502023517 | 8 | 344 | 6.4 | 11.3 | 0.00 | 0.00 | 0.00 | 64 | 1015.3 |
| 20260502023014 | 8 | 56 | 6.4 | 11.3 | 0.00 | 0.00 | 0.00 | 66 | 1015.3 |
| 20260502022510 | 8 | 5 | 11.3 | 14.5 | 0.00 | 0.00 | 0.00 | 67 | 1015.0 |
| 20260502022008 | 8 | 342 | 4.8 | 6.4 | 0.00 | 0.00 | 0.00 | 67 | 1015.2 |
| 20260502021505 | 8 | 351 | 4.8 | 9.7 | 0.00 | 0.00 | 0.00 | 69 | 1015.0 |
| 20260502021002 | 8 | 23 | 11.3 | 14.5 | 0.00 | 0.00 | 0.00 | 68 | 1014.9 |
| 20260502020500 | 8 | 334 | 6.4 | 11.3 | 0.00 | 0.00 | 0.00 | 71 | 1014.5 |
| 20260502015956 | 9 | 37 | 8.0 | 14.5 | 0.00 | 0.00 | 0.00 | 69 | 1014.4 |
| 20260502015454 | 9 | 356 | 4.8 | 11.3 | 0.00 | 0.00 | 0.00 | 69 | 1014.5 |
| 20260502014950 | 9 | 23 | 4.8 | 6.4 | 0.00 | 0.00 | 0.00 | 70 | 1014.4 |
| 20260502014447 | 9 | 339 | 8.0 | 9.7 | 0.00 | 0.00 | 0.00 | 69 | 1014.9 |
| 20260502013944 | 9 | 35 | 3.2 | 6.4 | 0.00 | 0.00 | 0.00 | 73 | 1014.7 |
| 20260502013440 | 9 | 78 | 3.2 | 4.8 | 0.00 | 0.00 | 0.00 | 73 | 1014.6 |
| 20260502012936 | 10 | 214 | 0.0 | 6.4 | 0.00 | 0.00 | 0.00 | 71 | 1014.4 |
| 20260502012434 | 10 | 49 | 6.4 | 6.4 | 0.00 | 0.00 | 0.00 | 73 | 1014.6 |
| 20260502011931 | 10 | 68 | 4.8 | 12.9 | 0.00 | 0.00 | 0.00 | 72 | 1014.3 |
| 20260502011427 | 10 | 290 | 12.9 | 14.5 | 0.00 | 0.00 | 0.00 | 70 | 1014.3 |
| 20260502010924 | 10 | 354 | 6.4 | 9.7 | 0.00 | 0.00 | 0.00 | 69 | 1014.5 |
| 20260502010421 | 10 | 295 | 1.6 | 4.8 | 0.00 | 0.00 | 0.00 | 68 | 1014.2 |
| 20260502005917 | 10 | 264 | 3.2 | 4.8 | 0.00 | 0.00 | 0.00 | 68 | 1014.0 |
| 20260502005415 | 10 | 322 | 1.6 | 3.2 | 0.00 | 0.00 | 0.00 | 69 | 1013.9 |
| 20260502004914 | 10 | 52 | 3.2 | 3.2 | 0.00 | 0.00 | 0.00 | 68 | 1013.6 |
| 20260502004409 | 11 | 208 | 0.0 | 3.2 | 0.00 | 0.00 | 0.00 | 66 | 1013.5 |
| 20260502003906 | 11 | 80 | 3.2 | 4.8 | 0.00 | 0.00 | 0.00 | 66 | 1013.5 |
| 20260502003404 | 11 | 304 | 8.0 | 11.3 | 0.00 | 0.00 | 0.00 | 63 | 1013.6 |
| 20260502002859 | 11 | 308 | 6.4 | 6.4 | 0.00 | 0.00 | 0.00 | 65 | 1013.4 |
| 20260502002357 | 11 | 265 | 1.6 | 3.2 | 0.00 | 0.00 | 0.00 | 62 | 1013.0 |
| 20260502001854 | 11 | 346 | 4.8 | 4.8 | 0.00 | 0.00 | 0.00 | 64 | 1013.1 |
| 20260502001352 | 11 | 335 | 3.2 | 14.5 | 0.00 | 0.00 | 0.00 | 62 | 1012.8 |
| 20260502000849 | 12 | 5 | 4.8 | 4.8 | 0.00 | 0.00 | 0.00 | 59 | 1012.6 |
| 20260502000348 | 12 | 327 | 3.2 | 4.8 | 0.00 | 0.00 | 0.00 | 58 | 1012.8 |
| 20260501235843 | 12 | 313 | 3.2 | 6.4 | 0.00 | 0.00 | 0.00 | 54 | 1012.5 |
| 20260501235339 | 12 | 306 | 6.4 | 9.7 | 0.00 | 0.00 | 0.00 | 55 | 1012.3 |
| 20260501234834 | 12 | 280 | 3.2 | 9.7 | 0.00 | 0.00 | 0.00 | 53 | 1012.4 |
| 20260501234332 | 12 | 35 | 6.4 | 9.7 | 0.00 | 0.00 | 0.00 | 52 | 1012.2 |
| 20260501233830 | 13 | 314 | 0.0 | 4.8 | 0.00 | 0.00 | 0.00 | 50 | 1012.3 |
| 20260501233327 | 13 | 279 | 4.8 | 9.7 | 0.00 | 0.00 | 0.00 | 50 | 1012.0 |
| 20260501232823 | 13 | 317 | 1.6 | 4.8 | 0.00 | 0.00 | 0.00 | 51 | 1011.8 |
| 20260501232320 | 13 | 15 | 3.2 | 6.4 | 0.00 | 0.00 | 0.00 | 49 | 1011.9 |
| 20260501231818 | 13 | 318 | 0.0 | 6.4 | 0.00 | 0.00 | 0.00 | 49 | 1012.0 |
| 20260501231316 | 13 | 322 | 9.7 | 20.9 | 0.00 | 0.00 | 0.00 | 48 | 1012.0 |
| 20260501230814 | 13 | 32 | 9.7 | 12.9 | 0.00 | 0.00 | 0.00 | 48 | 1012.1 |
| 20260501230312 | 14 | 339 | 8.0 | 11.3 | 0.00 | 0.00 | 0.00 | 46 | 1012.3 |
| 20260501225809 | 15 | 258 | 6.4 | 6.4 | 0.00 | 0.00 | 0.00 | 43 | 1011.9 |
| 20260501225307 | 15 | 332 | 11.3 | 20.9 | 0.00 | 0.00 | 0.00 | 43 | 1011.9 |
| 20260501224803 | 15 | 38 | 16.1 | 24.1 | 0.00 | 0.00 | 0.00 | 40 | 1012.1 |
| 20260501224300 | 15 | 289 | 6.4 | 16.1 | 0.00 | 0.00 | 0.00 | 38 | 1012.0 |
| 20260501223756 | 15 | 304 | 6.4 | 14.5 | 0.00 | 0.00 | 0.00 | 36 | 1011.5 |
| 20260501223253 | 15 | 292 | 6.4 | 6.4 | 0.00 | 0.00 | 0.00 | 36 | 1011.5 |
| 20260501222749 | 15 | 292 | 0.0 | 1.6 | 0.00 | 0.00 | 0.00 | 37 | 1011.3 |
| 20260501222246 | 15 | 349 | 9.7 | 12.9 | 0.00 | 0.00 | 0.00 | 36 | 1011.2 |
| 20260501221743 | 16 | 275 | 4.8 | 9.7 | 0.00 | 0.00 | 0.00 | 35 | 1011.3 |
| 20260501221240 | 16 | 300 | 1.6 | 14.5 | 0.00 | 0.00 | 0.00 | 33 | 1011.4 |
| 20260501220738 | 16 | 309 | 9.7 | 11.3 | 0.00 | 0.00 | 0.00 | 34 | 1011.6 |
| 20260501220235 | 16 | 281 | 8.0 | 11.3 | 0.00 | 0.00 | 0.00 | 33 | 1011.5 |
| 20260501215732 | 16 | 270 | 14.5 | 20.9 | 0.00 | 0.00 | 0.00 | 31 | 1011.4 |
| 20260501215227 | 17 | 255 | 9.7 | 11.3 | 0.00 | 0.00 | 0.00 | 30 | 1011.4 |
| 20260501214722 | 17 | 27 | 8.0 | 11.3 | 0.00 | 0.00 | 0.00 | 30 | 1011.2 |
| 20260501214219 | 17 | 280 | 14.5 | 20.9 | 0.00 | 0.00 | 0.00 | 29 | 1011.2 |
| 20260501213715 | 17 | 15 | 9.7 | 12.9 | 0.00 | 0.00 | 0.00 | 29 | 1011.0 |
| 20260501213211 | 17 | 345 | 0.0 | 4.8 | 0.00 | 0.00 | 0.00 | 29 | 1011.1 |
| 20260501212708 | 17 | 227 | 3.2 | 9.7 | 0.00 | 0.00 | 0.00 | 26 | 1011.2 |
| 20260501212204 | 17 | 327 | 3.2 | 9.7 | 0.00 | 0.00 | 0.00 | 28 | 1011.2 |
| 20260501211701 | 17 | 266 | 11.3 | 25.7 | 0.00 | 0.00 | 0.00 | 31 | 1011.4 |
| 20260501211158 | 18 | 257 | 11.3 | 16.1 | 0.00 | 0.00 | 0.00 | 26 | 1011.1 |
| 20260501210655 | 17 | 269 | 6.4 | 20.9 | 0.00 | 0.00 | 0.00 | 27 | 1011.1 |
| 20260501210152 | 17 | 301 | 14.5 | 20.9 | 0.00 | 0.00 | 0.00 | 29 | 1011.1 |
| 20260501205648 | 17 | 165 | 3.2 | 17.7 | 0.00 | 0.00 | 0.00 | 31 | 1011.1 |
| 20260501205146 | 17 | 130 | 6.4 | 9.7 | 0.00 | 0.00 | 0.00 | 33 | 1011.1 |
| 20260501204642 | 17 | 5 | 0.0 | 1.6 | 0.00 | 0.00 | 0.00 | 30 | 1011.1 |
| 20260501204138 | 17 | 222 | 6.4 | 6.4 | 0.00 | 0.00 | 0.00 | 29 | 1010.9 |
| 20260501203635 | 16 | 245 | 4.8 | 4.8 | 0.00 | 0.00 | 0.00 | 33 | 1010.8 |
| 20260501203133 | 16 | 186 | 1.6 | 9.7 | 0.00 | 0.00 | 0.00 | 30 | 1010.9 |
| 20260501202629 | 17 | 270 | 14.5 | 20.9 | 0.00 | 0.00 | 0.00 | 31 | 1010.8 |
| 20260501202126 | 18 | 146 | 8.0 | 11.3 | 0.00 | 0.00 | 0.00 | 35 | 1011.2 |
| 20260501201623 | 17 | 132 | 8.0 | 12.9 | 0.00 | 0.00 | 0.00 | 33 | 1011.2 |
| 20260501201119 | 18 | 158 | 4.8 | 6.4 | 0.00 | 0.00 | 0.00 | 35 | 1011.3 |
| 20260501200617 | 17 | 225 | 1.6 | 14.5 | 0.00 | 0.00 | 0.00 | 37 | 1011.3 |
| 20260501200114 | 17 | 149 | 6.4 | 17.7 | 0.00 | 0.00 | 0.00 | 32 | 1011.1 |
| 20260501195612 | 17 | 146 | 8.0 | 9.7 | 0.00 | 0.00 | 0.00 | 33 | 1011.3 |
| 20260501195107 | 17 | 123 | 3.2 | 6.4 | 0.00 | 0.00 | 0.00 | 36 | 1011.3 |
| 20260501194602 | 17 | 147 | 6.4 | 12.9 | 0.00 | 0.00 | 0.00 | 36 | 1011.4 |
| 20260501194058 | 16 | 239 | 9.7 | 12.9 | 0.00 | 0.00 | 0.00 | 36 | 1011.8 |
| 20260501193556 | 18 | 181 | 3.2 | 11.3 | 0.00 | 0.00 | 0.00 | 33 | 1011.5 |
| 20260501193055 | 17 | 195 | 0.0 | 3.2 | 0.00 | 0.00 | 0.00 | 42 | 1011.5 |
| 20260501192551 | 17 | 190 | 4.8 | 22.5 | 0.00 | 0.00 | 0.00 | 38 | 1011.8 |
| 20260501192049 | 17 | 102 | 11.3 | 14.5 | 0.00 | 0.00 | 0.00 | 32 | 1012.1 |
| 20260501191545 | 16 | 208 | 3.2 | 16.1 | 0.00 | 0.00 | 0.00 | 37 | 1012.0 |
| 20260501191043 | 17 | 262 | 1.6 | 11.3 | 0.00 | 0.00 | 0.00 | 35 | 1012.1 |
| 20260501190538 | 17 | 136 | 8.0 | 17.7 | 0.00 | 0.00 | 0.00 | 31 | 1012.3 |
| 20260501190034 | 17 | 110 | 4.8 | 14.5 | 0.00 | 0.00 | 0.00 | 31 | 1012.4 |
| 20260501185530 | 16 | 261 | 4.8 | 12.9 | 0.00 | 0.00 | 0.00 | 42 | 1012.3 |
| 20260501185026 | 16 | 205 | 6.4 | 11.3 | 0.00 | 0.00 | 0.00 | 32 | 1012.4 |
| 20260501184523 | 16 | 179 | 16.1 | 20.9 | 0.00 | 0.00 | 0.00 | 35 | 1012.4 |
| 20260501184023 | 16 | 211 | 8.0 | 16.1 | 0.00 | 0.00 | 0.00 | 35 | 1012.5 |
| 20260501183520 | 16 | 188 | 1.6 | 4.8 | 0.00 | 0.00 | 0.00 | 34 | 1012.6 |
| 20260501183016 | 16 | 87 | 3.2 | 9.7 | 0.00 | 0.00 | 0.00 | 40 | 1012.7 |
| 20260501182513 | 16 | 217 | 9.7 | 12.9 | 0.00 | 0.00 | 0.00 | 35 | 1012.7 |
| 20260501182010 | 16 | 271 | 6.4 | 11.3 | 0.00 | 0.00 | 0.00 | 37 | 1012.8 |
| 20260501181507 | 16 | 242 | 3.2 | 3.2 | 0.00 | 0.00 | 0.00 | 41 | 1012.7 |
| 20260501181004 | 16 | 3 | 6.4 | 12.9 | 0.00 | 0.00 | 0.00 | 36 | 1012.8 |
| 20260501180502 | 16 | 343 | 4.8 | 22.5 | 0.00 | 0.00 | 0.00 | 40 | 1012.9 |
| 20260501175957 | 16 | 293 | 9.7 | 12.9 | 0.00 | 0.00 | 0.00 | 32 | 1012.9 |
| 20260501175455 | 16 | 265 | 4.8 | 9.7 | 0.00 | 0.00 | 0.00 | 41 | 1012.9 |
| 20260501174951 | 15 | 136 | 12.9 | 20.9 | 0.00 | 0.00 | 0.00 | 36 | 1012.9 |
| 20260501174449 | 15 | 141 | 9.7 | 17.7 | 0.00 | 0.00 | 0.00 | 35 | 1013.1 |
| 20260501173946 | 15 | 240 | 6.4 | 14.5 | 0.00 | 0.00 | 0.00 | 36 | 1013.4 |
| 20260501173444 | 15 | 229 | 3.2 | 6.4 | 0.00 | 0.00 | 0.00 | 46 | 1013.1 |
| 20260501172939 | 15 | 299 | 4.8 | 11.3 | 0.00 | 0.00 | 0.00 | 42 | 1013.4 |
| 20260501172435 | 16 | 170 | 1.6 | 3.2 | 0.00 | 0.00 | 0.00 | 45 | 1013.4 |
| 20260501171931 | 15 | 290 | 6.4 | 16.1 | 0.00 | 0.00 | 0.00 | 40 | 1013.5 |
| 20260501171427 | 15 | 168 | 9.7 | 12.9 | 0.00 | 0.00 | 0.00 | 41 | 1013.5 |
| 20260501170924 | 15 | 189 | 3.2 | 9.7 | 0.00 | 0.00 | 0.00 | 40 | 1013.6 |
| 20260501170421 | 14 | 207 | 0.0 | 14.5 | 0.00 | 0.00 | 0.00 | 43 | 1013.6 |
| 20260501165919 | 14 | 220 | 3.2 | 11.3 | 0.00 | 0.00 | 0.00 | 47 | 1013.8 |
| 20260501165416 | 14 | 191 | 8.0 | 14.5 | 0.00 | 0.00 | 0.00 | 47 | 1013.8 |
| 20260501164914 | 13 | 52 | 0.0 | 6.4 | 0.00 | 0.00 | 0.00 | 51 | 1014.1 |
| 20260501164411 | 13 | 139 | 1.6 | 9.7 | 0.00 | 0.00 | 0.00 | 46 | 1014.0 |
| 20260501163908 | 13 | 289 | 4.8 | 6.4 | 0.00 | 0.00 | 0.00 | 47 | 1013.9 |
| 20260501163404 | 15 | 231 | 1.6 | 3.2 | 0.00 | 0.00 | 0.00 | 50 | 1013.9 |
| 20260501162901 | 13 | 200 | 3.2 | 12.9 | 0.00 | 0.00 | 0.00 | 49 | 1014.1 |
| 20260501162357 | 13 | 249 | 1.6 | 3.2 | 0.00 | 0.00 | 0.00 | 46 | 1013.9 |
| 20260501161854 | 13 | 300 | 3.2 | 9.7 | 0.00 | 0.00 | 0.00 | 49 | 1014.1 |
| 20260501161351 | 13 | 318 | 6.4 | 11.3 | 0.00 | 0.00 | 0.00 | 53 | 1014.2 |
| 20260501160848 | 13 | 143 | 3.2 | 4.8 | 0.00 | 0.00 | 0.00 | 46 | 1014.3 |
| 20260501160344 | 13 | 257 | 6.4 | 9.7 | 0.00 | 0.00 | 0.00 | 45 | 1014.3 |
| 20260501155842 | 13 | 236 | 4.8 | 11.3 | 0.00 | 0.00 | 0.00 | 48 | 1014.4 |
| 20260501155338 | 12 | 223 | 0.0 | 9.7 | 0.00 | 0.00 | 0.00 | 49 | 1014.6 |